When you browse on this site, cookies collect data to enhance your experience and personalize the content and advertising you see.
Visit our Privacy Policy to learn more. By continuing to use the site, you agree to this use of cookies and data.
  • In Latvia
  • List of Countries
  • For 7 days
  • Water Temperature
  • Satellite Maps
  • Weather Map
  • Weather Widgets
  • user-avatar
    Login

    Hourly Weather Kuliberovo

    Today, 22 February, Friday

    Time Temperature Precipitation Wind Pressure Humidity
    00:00 -15°C° 0.1 mm 7 mps 740 mmHg 80%
    01:00 -15°C° 0.1 mm 7 mps 741 mmHg 80%
    02:00 -15°C° 0 mm 7 mps 741 mmHg 80%
    03:00 -15°C° 0.1 mm 7 mps 742 mmHg 79%
    04:00 -15°C° 0.1 mm 7 mps 743 mmHg 77%
    05:00 -17°C° 0.1 mm 7 mps 743 mmHg 75%
    06:00 -17°C° 0 mm 7 mps 744 mmHg 73%
    07:00 -17°C° 0 mm 7 mps 745 mmHg 71%
    08:00 -17°C° 0 mm 7 mps 746 mmHg 69%
    09:00 -16°C° 0 mm 8 mps 746 mmHg 68%
    10:00 -15°C° 0 mm 8 mps 747 mmHg 66%
    11:00 -13°C° 0 mm 8 mps 748 mmHg 65%
    12:00 -13°C° 0 mm 8 mps 749 mmHg 66%
    13:00 -12°C° 0 mm 7 mps 750 mmHg 68%
    14:00 -12°C° 0 mm 7 mps 750 mmHg 69%
    15:00 -11°C° 0 mm 6 mps 751 mmHg 72%
    16:00 -12°C° 0 mm 6 mps 752 mmHg 76%
    17:00 -12°C° 0 mm 5 mps 753 mmHg 79%
    18:00 -12°C° 0 mm 5 mps 753 mmHg 83%
    19:00 -12°C° 0 mm 4 mps 754 mmHg 86%
    20:00 -12°C° 0 mm 4 mps 754 mmHg 90%
    21:00 -14°C° 0 mm 4 mps 755 mmHg 90%
    22:00 -14°C° 0 mm 3 mps 755 mmHg 90%
    23:00 -16°C° 0 mm 3 mps 755 mmHg 89%

    Tomorrow, 23 February, Saturday

    Time Temperature Precipitation Wind Pressure Humidity
    00:00 -16°C° 0 mm 3 mps 755 mmHg 90%
    01:00 -17°C° 0 mm 3 mps 756 mmHg 91%
    02:00 -16°C° 0 mm 2 mps 756 mmHg 91%
    03:00 -16°C° 0 mm 2 mps 756 mmHg 90%
    04:00 -16°C° 0 mm 2 mps 756 mmHg 88%
    05:00 -16°C° 0 mm 2 mps 756 mmHg 87%
    06:00 -15°C° 0 mm 2 mps 755 mmHg 84%
    07:00 -15°C° 0 mm 3 mps 755 mmHg 82%
    08:00 -14°C° 0 mm 3 mps 754 mmHg 80%
    09:00 -13°C° 0 mm 3 mps 753 mmHg 77%
    10:00 -12°C° 0 mm 4 mps 753 mmHg 74%
    11:00 -12°C° 0 mm 5 mps 752 mmHg 71%
    12:00 -11°C° 0.6 mm 5 mps 751 mmHg 78%
    13:00 -11°C° 0.6 mm 5 mps 750 mmHg 85%
    14:00 -11°C° 0.6 mm 5 mps 749 mmHg 91%
    15:00 -11°C° 0.9 mm 5 mps 748 mmHg 92%
    16:00 -10°C° 0.9 mm 5 mps 747 mmHg 92%
    17:00 -10°C° 0.9 mm 5 mps 746 mmHg 93%
    18:00 -7°C° 0.6 mm 5 mps 746 mmHg 93%
    19:00 -5°C° 0.6 mm 4 mps 745 mmHg 93%
    20:00 -4°C° 0.6 mm 4 mps 745 mmHg 93%
    21:00 -3°C° 0.4 mm 4 mps 745 mmHg 94%
    22:00 -2°C° 0.4 mm 4 mps 745 mmHg 94%
    23:00 -1°C° 0.4 mm 4 mps 744 mmHg 95%

    Day after tomorrow, 24 February, Sunday

    Time Temperature Precipitation Wind Pressure Humidity
    00:00 -1°C° 0.1 mm 4 mps 745 mmHg 95%
    01:00 -1°C° 0.1 mm 4 mps 745 mmHg 96%
    02:00 -1°C° 0.1 mm 4 mps 745 mmHg 96%
    03:00 -1°C° 0.1 mm 4 mps 745 mmHg 96%
    04:00 -1°C° 0.1 mm 4 mps 745 mmHg 96%
    05:00 -1°C° 0.1 mm 4 mps 745 mmHg 96%
    06:00 -1°C° 0.1 mm 4 mps 746 mmHg 96%
    07:00 -1°C° 0.1 mm 4 mps 746 mmHg 96%
    08:00 -1°C° 0.1 mm 4 mps 746 mmHg 96%
    09:00 -1°C° 0 mm 4 mps 747 mmHg 96%
    10:00 0°C° 0 mm 3 mps 747 mmHg 97%
    11:00 0°C° 0 mm 3 mps 747 mmHg 97%
    12:00 0°C° 0 mm 3 mps 747 mmHg 97%
    13:00 0°C° 0 mm 3 mps 747 mmHg 97%
    14:00 0°C° 0 mm 3 mps 748 mmHg 97%
    15:00 0°C° 0 mm 3 mps 748 mmHg 96%
    16:00 0°C° 0 mm 3 mps 748 mmHg 95%
    17:00 -1°C° 0 mm 3 mps 748 mmHg 95%
    18:00 -1°C° 0 mm 3 mps 748 mmHg 95%
    19:00 -1°C° 0 mm 2 mps 747 mmHg 95%
    20:00 -1°C° 0 mm 2 mps 747 mmHg 96%
    21:00 -1°C° 0.1 mm 3 mps 747 mmHg 95%
    22:00 -1°C° 0.1 mm 3 mps 746 mmHg 95%
    23:00 -1°C° 0.1 mm 3 mps 745 mmHg 94%

    25 February, Monday

    Time Temperature Precipitation Wind Pressure Humidity
    00:00 -2°C° 0.1 mm 4 mps 745 mmHg 94%
    01:00 -1°C° 0.1 mm 5 mps 744 mmHg 93%
    02:00 -1°C° 0.1 mm 5 mps 744 mmHg 93%
    03:00 -1°C° 0.1 mm 5 mps 743 mmHg 92%
    04:00 -2°C° 0.1 mm 6 mps 743 mmHg 91%
    05:00 -1°C° 0.1 mm 6 mps 743 mmHg 90%
    06:00 -1°C° 0 mm 6 mps 743 mmHg 90%
    07:00 -1°C° 0 mm 5 mps 743 mmHg 90%
    08:00 -1°C° 0 mm 5 mps 743 mmHg 90%
    09:00 -1°C° 0.1 mm 5 mps 743 mmHg 89%
    10:00 -1°C° 0.1 mm 5 mps 743 mmHg 88%
    11:00 -2°C° 0.1 mm 6 mps 743 mmHg 87%
    12:00 -2°C° 0 mm 6 mps 743 mmHg 85%
    13:00 -2°C° 0 mm 6 mps 743 mmHg 84%
    14:00 -1°C° 0 mm 5 mps 743 mmHg 83%
    15:00 -2°C° 0 mm 5 mps 743 mmHg 84%
    16:00 -2°C° 0 mm 5 mps 742 mmHg 85%
    17:00 -4°C° 0 mm 5 mps 742 mmHg 86%
    18:00 -4°C° 0.1 mm 5 mps 742 mmHg 86%
    19:00 -4°C° 0.1 mm 5 mps 742 mmHg 86%
    20:00 -3°C° 0.1 mm 4 mps 742 mmHg 86%
    21:00 -3°C° 0 mm 4 mps 741 mmHg 87%
    22:00 -3°C° 0 mm 4 mps 740 mmHg 88%
    23:00 -3°C° 0 mm 4 mps 740 mmHg 88%

    26 February, Tuesday

    Time Temperature Precipitation Wind Pressure Humidity
    00:00 -3°C° 0.1 mm 4 mps 739 mmHg 90%
    01:00 -3°C° 0.1 mm 4 mps 738 mmHg 91%
    02:00 -2°C° 0.1 mm 3 mps 737 mmHg 93%
    03:00 -2°C° 0.3 mm 3 mps 736 mmHg 94%
    04:00 -2°C° 0.3 mm 2 mps 735 mmHg 95%
    05:00 0°C° 0.3 mm 1 mps 734 mmHg 97%
    06:00 0°C° 0.5 mm 1 mps 733 mmHg 97%
    07:00 -1°C° 0.5 mm 0 mps 733 mmHg 97%
    08:00 -1°C° 0.5 mm 0 mps 732 mmHg 97%
    09:00 0°C° 0.1 mm 1 mps 732 mmHg 95%
    10:00 -1°C° 0.1 mm 2 mps 733 mmHg 93%
    11:00 -1°C° 0.1 mm 3 mps 733 mmHg 91%
    12:00 -1°C° 0 mm 3 mps 733 mmHg 88%
    13:00 -2°C° 0 mm 4 mps 734 mmHg 86%
    14:00 -2°C° 0 mm 4 mps 734 mmHg 83%
    15:00 -3°C° 0.1 mm 4 mps 735 mmHg 83%
    16:00 -4°C° 0.1 mm 5 mps 736 mmHg 84%
    17:00 -5°C° 0.1 mm 5 mps 736 mmHg 84%
    18:00 -5°C° 0.1 mm 5 mps 737 mmHg 83%
    19:00 -6°C° 0.1 mm 5 mps 738 mmHg 81%
    20:00 -7°C° 0.1 mm 5 mps 738 mmHg 80%
    21:00 -8°C° 0 mm 5 mps 739 mmHg 80%
    22:00 -10°C° 0 mm 5 mps 739 mmHg 80%
    23:00 -12°C° 0 mm 5 mps 740 mmHg 80%

    27 February, Wednesday

    Time Temperature Precipitation Wind Pressure Humidity
    00:00 -11°C° 0 mm 4 mps 740 mmHg 79%
    01:00 -12°C° 0 mm 4 mps 741 mmHg 78%
    02:00 -14°C° 0 mm 4 mps 741 mmHg 77%
    03:00 -14°C° 0 mm 4 mps 741 mmHg 77%
    04:00 -14°C° 0 mm 3 mps 742 mmHg 77%
    05:00 -14°C° 0 mm 3 mps 742 mmHg 77%
    06:00 -14°C° 0 mm 3 mps 742 mmHg 78%
    07:00 -13°C° 0 mm 3 mps 742 mmHg 79%
    08:00 -12°C° 0 mm 2 mps 742 mmHg 80%
    09:00 -10°C° 0 mm 2 mps 742 mmHg 80%
    10:00 -8°C° 0 mm 2 mps 741 mmHg 80%
    11:00 -7°C° 0 mm 2 mps 741 mmHg 80%
    12:00 -6°C° 0 mm 2 mps 740 mmHg 82%
    13:00 -6°C° 0 mm 3 mps 739 mmHg 84%
    14:00 -5°C° 0 mm 4 mps 738 mmHg 87%
    15:00 -5°C° 0.2 mm 4 mps 736 mmHg 87%
    16:00 -5°C° 0.2 mm 5 mps 735 mmHg 88%
    17:00 -5°C° 0.2 mm 5 mps 734 mmHg 88%
    18:00 -4°C° 0.1 mm 5 mps 732 mmHg 88%
    19:00 -4°C° 0.1 mm 5 mps 731 mmHg 88%
    20:00 -2°C° 0.1 mm 5 mps 730 mmHg 89%
    21:00 -2°C° 0.1 mm 4 mps 729 mmHg 90%
    22:00 -2°C° 0.1 mm 4 mps 728 mmHg 91%
    23:00 -2°C° 0.1 mm 4 mps 727 mmHg 91%
    Show more